Zurück zum Katalog

STARLINK-31289

AktivKommunikationVLEO
NORAD 59173·PAYLOAD·🇺🇸 United States

Gestartet Mar 4, 2024 von Cape Canaveral Space Force Station

Loading…

Nächste Überflüge (nächste 24 Stunden)

TLE

AktuellSource: CelesTrak SupGP

Epoche: Sep 15, 2026, 02:04 UTC

1 59173C 24044X   26258.08659722  .00050991  00000+0  18472-2 0  2586
2 59173  42.9994 117.4452 0001427 277.4047 346.3335 15.27547739    11

Verfolge STARLINK-31289 in Echtzeit mit AllMySat

Download on the App Store